Time,TemperatureF,DewpointF,PressureIn,WindDirection,WindDirectionDegrees,WindSpeedMPH,WindSpeedGustMPH,Humidity,HourlyPrecipIn,Conditions,Clouds,dailyrainin,SoftwareType,DateUTC
2013-01-18 00:00:00,20.7,14.9,30.45,SW,226,3.0,3.0,78,0.00,,,0.00,Wunderground v.1.15,2013-01-18 05:00:00,
2013-01-18 00:04:00,20.7,14.9,30.45,SSW,195,3.0,4.0,78,0.00,,,0.00,Wunderground v.1.15,2013-01-18 05:04:00,
2013-01-18 00:05:00,20.7,14.6,30.45,SSW,210,3.0,4.0,77,0.00,,,0.00,Wunderground v.1.15,2013-01-18 05:05:00,
2013-01-18 00:11:00,20.6,14.8,30.45,WSW,245,3.0,3.0,78,0.00,,,0.00,Wunderground v.1.15,2013-01-18 05:11:00,
2013-01-18 00:17:00,20.7,15.2,30.45,SSE,155,3.0,6.0,79,0.00,,,0.00,Wunderground v.1.15,2013-01-18 05:17:00,
2013-01-18 00:23:00,20.7,15.2,30.45,SW,222,3.0,4.0,79,0.00,,,0.00,Wunderground v.1.15,2013-01-18 05:23:00,
2013-01-18 00:28:00,20.5,15.3,30.45,WSW,258,3.0,4.0,80,0.00,,,0.00,Wunderground v.1.15,2013-01-18 05:28:00,
2013-01-18 00:34:00,20.6,15.4,30.46,WSW,246,3.0,7.0,80,0.00,,,0.00,Wunderground v.1.15,2013-01-18 05:34:00,
2013-01-18 00:40:00,20.8,15.6,30.46,SW,215,4.0,7.0,80,0.00,,,0.00,Wunderground v.1.15,2013-01-18 05:40:00,
2013-01-18 00:46:00,20.8,15.3,30.46,SW,229,4.0,7.0,79,0.00,,,0.00,Wunderground v.1.15,2013-01-18 05:46:00,
2013-01-18 00:52:00,20.8,15.6,30.46,SW,235,5.0,7.0,80,0.00,,,0.00,Wunderground v.1.15,2013-01-18 05:52:00,
2013-01-18 00:58:00,20.8,15.6,30.46,SSW,212,5.0,7.0,80,0.00,,,0.00,Wunderground v.1.15,2013-01-18 05:58:00,
2013-01-18 01:04:00,20.7,15.5,30.47,SW,235,4.0,6.0,80,0.00,,,0.00,Wunderground v.1.15,2013-01-18 06:04:00,
2013-01-18 01:09:00,20.6,15.4,30.47,SW,226,4.0,6.0,80,0.00,,,0.00,Wunderground v.1.15,2013-01-18 06:09:00,
2013-01-18 01:15:00,20.5,15.3,30.47,SW,222,3.0,4.0,80,0.00,,,0.00,Wunderground v.1.15,2013-01-18 06:15:00,
2013-01-18 01:21:00,20.4,15.2,30.47,SW,222,3.0,4.0,80,0.00,,,0.00,Wunderground v.1.15,2013-01-18 06:21:00,
2013-01-18 01:27:00,20.4,15.5,30.47,SW,226,4.0,6.0,81,0.00,,,0.00,Wunderground v.1.15,2013-01-18 06:27:00,
2013-01-18 01:33:00,20.5,15.3,30.47,SSW,212,5.0,6.0,80,0.00,,,0.00,Wunderground v.1.15,2013-01-18 06:33:00,
2013-01-18 01:39:00,20.5,15.3,30.47,SW,221,4.0,6.0,80,0.00,,,0.00,Wunderground v.1.15,2013-01-18 06:39:00,
2013-01-18 01:45:00,20.4,15.2,30.48,SW,224,3.0,6.0,80,0.00,,,0.00,Wunderground v.1.15,2013-01-18 06:45:00,
2013-01-18 01:51:00,20.3,15.1,30.48,SW,227,4.0,6.0,80,0.00,,,0.00,Wunderground v.1.15,2013-01-18 06:51:00,
2013-01-18 01:57:00,20.2,15.3,30.48,SW,221,3.0,6.0,81,0.00,,,0.00,Wunderground v.1.15,2013-01-18 06:57:00,
2013-01-18 02:03:00,20.1,15.2,30.48,SW,236,3.0,4.0,81,0.00,,,0.00,Wunderground v.1.15,2013-01-18 07:03:00,
2013-01-18 02:09:00,20.1,15.2,30.49,SW,232,3.0,6.0,81,0.00,,,0.00,Wunderground v.1.15,2013-01-18 07:09:00,
2013-01-18 02:15:00,20.2,15.0,30.50,SW,230,4.0,6.0,80,0.00,,,0.00,Wunderground v.1.15,2013-01-18 07:15:00,
2013-01-18 02:21:00,20.3,15.1,30.50,SW,229,5.0,7.0,80,0.00,,,0.00,Wunderground v.1.15,2013-01-18 07:21:00,
2013-01-18 02:26:00,20.4,15.2,30.50,SW,224,5.0,7.0,80,0.00,,,0.00,Wunderground v.1.15,2013-01-18 07:26:00,
2013-01-18 02:32:00,20.4,15.2,30.50,SSW,193,5.0,9.0,80,0.00,,,0.00,Wunderground v.1.15,2013-01-18 07:32:00,
2013-01-18 02:38:00,20.4,15.5,30.51,SW,224,4.0,9.0,81,0.00,,,0.00,Wunderground v.1.15,2013-01-18 07:38:00,
2013-01-18 02:44:00,20.4,15.2,30.50,SW,218,5.0,9.0,80,0.00,,,0.00,Wunderground v.1.15,2013-01-18 07:44:00,
2013-01-18 02:50:00,20.2,15.3,30.50,SW,218,4.0,4.0,81,0.00,,,0.00,Wunderground v.1.15,2013-01-18 07:50:00,
2013-01-18 02:56:00,20.1,15.2,30.50,SW,222,3.0,9.0,81,0.00,,,0.00,Wunderground v.1.15,2013-01-18 07:56:00,
2013-01-18 03:02:00,20.0,15.4,30.50,SW,218,3.0,4.0,82,0.00,,,0.00,Wunderground v.1.15,2013-01-18 08:02:00,
2013-01-18 03:08:00,19.9,15.3,30.50,SW,224,3.0,4.0,82,0.00,,,0.00,Wunderground v.1.15,2013-01-18 08:08:00,
2013-01-18 03:14:00,19.8,15.2,30.51,SW,222,3.0,4.0,82,0.00,,,0.00,Wunderground v.1.15,2013-01-18 08:14:00,
2013-01-18 03:20:00,19.7,15.1,30.51,SW,226,3.0,4.0,82,0.00,,,0.00,Wunderground v.1.15,2013-01-18 08:20:00,
2013-01-18 03:26:00,19.7,15.4,30.51,SSW,212,4.0,5.0,83,0.00,,,0.00,Wunderground v.1.15,2013-01-18 08:26:00,
2013-01-18 03:32:00,19.7,15.4,30.51,WSW,246,4.0,8.0,83,0.00,,,0.00,Wunderground v.1.15,2013-01-18 08:32:00,
2013-01-18 03:38:00,19.7,15.4,30.52,SW,233,5.0,8.0,83,0.00,,,0.00,Wunderground v.1.15,2013-01-18 08:38:00,
2013-01-18 03:43:00,19.8,15.5,30.52,SW,233,4.0,8.0,83,0.00,,,0.00,Wunderground v.1.15,2013-01-18 08:43:00,
2013-01-18 03:49:00,19.8,15.2,30.52,WSW,250,5.0,8.0,82,0.00,,,0.00,Wunderground v.1.15,2013-01-18 08:49:00,
2013-01-18 03:54:00,19.9,15.3,30.51,WSW,255,5.0,8.0,82,0.00,,,0.00,Wunderground v.1.15,2013-01-18 08:54:00,
2013-01-18 04:00:00,20.0,15.4,30.51,SW,228,5.0,5.0,82,0.00,,,0.00,Wunderground v.1.15,2013-01-18 09:00:00,
2013-01-18 04:06:00,19.9,15.3,30.51,SW,233,4.0,5.0,82,0.00,,,0.00,Wunderground v.1.15,2013-01-18 09:06:00,
2013-01-18 04:11:00,19.9,15.3,30.51,SSW,210,4.0,7.0,82,0.00,,,0.00,Wunderground v.1.15,2013-01-18 09:11:00,
2013-01-18 04:17:00,19.8,15.2,30.50,SW,225,4.0,7.0,82,0.00,,,0.00,Wunderground v.1.15,2013-01-18 09:17:00,
2013-01-18 04:23:00,19.8,15.2,30.50,SSW,194,3.0,4.0,82,0.00,,,0.00,Wunderground v.1.15,2013-01-18 09:23:00,
2013-01-18 04:29:00,19.6,15.0,30.49,SSW,208,3.0,4.0,82,0.00,,,0.00,Wunderground v.1.15,2013-01-18 09:29:00,
2013-01-18 04:35:00,19.6,15.0,30.49,SSW,208,3.0,6.0,82,0.00,,,0.00,Wunderground v.1.15,2013-01-18 09:35:00,
2013-01-18 04:41:00,19.3,15.0,30.49,SSW,210,2.0,6.0,83,0.00,,,0.00,Wunderground v.1.15,2013-01-18 09:41:00,
2013-01-18 04:47:00,19.1,14.8,30.50,SSW,207,2.0,6.0,83,0.00,,,0.00,Wunderground v.1.15,2013-01-18 09:47:00,
2013-01-18 04:53:00,18.9,14.9,30.50,SSW,205,2.0,6.0,84,0.00,,,0.00,Wunderground v.1.15,2013-01-18 09:53:00,
2013-01-18 04:59:00,18.9,14.9,30.49,SSW,205,2.0,6.0,84,0.00,,,0.00,Wunderground v.1.15,2013-01-18 09:59:00,
2013-01-18 05:04:00,18.8,15.0,30.50,SSW,204,2.0,2.0,85,0.00,,,0.00,Wunderground v.1.15,2013-01-18 10:04:00,
2013-01-18 05:10:00,18.8,15.0,30.49,SSW,210,2.0,3.0,85,0.00,,,0.00,Wunderground v.1.15,2013-01-18 10:10:00,
2013-01-18 05:16:00,18.8,15.0,30.50,SSW,205,3.0,4.0,85,0.00,,,0.00,Wunderground v.1.15,2013-01-18 10:16:00,
2013-01-18 05:22:00,18.9,15.1,30.50,SW,215,3.0,3.0,85,0.00,,,0.00,Wunderground v.1.15,2013-01-18 10:22:00,
2013-01-18 05:28:00,18.8,15.0,30.50,SSW,210,3.0,3.0,85,0.00,,,0.00,Wunderground v.1.15,2013-01-18 10:28:00,
2013-01-18 05:34:00,18.8,15.0,30.50,SSW,197,2.0,7.0,85,0.00,,,0.00,Wunderground v.1.15,2013-01-18 10:34:00,
2013-01-18 05:39:00,18.8,15.0,30.50,SSW,208,3.0,7.0,85,0.00,,,0.00,Wunderground v.1.15,2013-01-18 10:39:00,
2013-01-18 05:45:00,18.8,15.0,30.50,SSW,208,3.0,7.0,85,0.00,,,0.00,Wunderground v.1.15,2013-01-18 10:45:00,
2013-01-18 05:51:00,18.8,14.8,30.51,SSW,200,3.0,7.0,84,0.00,,,0.00,Wunderground v.1.15,2013-01-18 10:51:00,
2013-01-18 05:57:00,18.9,14.9,30.51,SSW,192,3.0,7.0,84,0.00,,,0.00,Wunderground v.1.15,2013-01-18 10:57:00,
2013-01-18 06:03:00,18.8,15.0,30.50,South,187,4.0,4.0,85,0.00,,,0.00,Wunderground v.1.15,2013-01-18 11:03:00,
2013-01-18 06:08:00,18.8,15.0,30.50,SSW,198,4.0,4.0,85,0.00,,,0.00,Wunderground v.1.15,2013-01-18 11:08:00,
2013-01-18 06:14:00,18.6,14.8,30.50,South,174,2.0,3.0,85,0.00,,,0.00,Wunderground v.1.15,2013-01-18 11:14:00,
2013-01-18 06:19:00,18.5,15.0,30.51,SSW,199,2.0,3.0,86,0.00,,,0.00,Wunderground v.1.15,2013-01-18 11:19:00,
2013-01-18 06:25:00,18.4,14.9,30.51,SSW,205,2.0,3.0,86,0.00,,,0.00,Wunderground v.1.15,2013-01-18 11:25:00,
2013-01-18 06:31:00,18.5,15.0,30.51,SSW,198,2.0,5.0,86,0.00,,,0.00,Wunderground v.1.15,2013-01-18 11:31:00,
2013-01-18 06:37:00,18.5,15.0,30.51,SW,218,2.0,5.0,86,0.00,,,0.00,Wunderground v.1.15,2013-01-18 11:37:00,
2013-01-18 06:43:00,18.7,15.2,30.51,SSW,212,2.0,5.0,86,0.00,,,0.00,Wunderground v.1.15,2013-01-18 11:43:00,
2013-01-18 06:49:00,18.8,15.3,30.51,SSW,207,3.0,5.0,86,0.00,,,0.00,Wunderground v.1.15,2013-01-18 11:49:00,
2013-01-18 06:55:00,18.8,15.3,30.51,SSW,203,3.0,5.0,86,0.00,,,0.00,Wunderground v.1.15,2013-01-18 11:55:00,
2013-01-18 07:00:00,18.8,15.3,30.51,SSW,205,2.0,3.0,86,0.00,,,0.00,Wunderground v.1.15,2013-01-18 12:00:00,
2013-01-18 07:05:00,18.8,15.3,30.50,SSW,200,3.0,5.0,86,0.00,,,0.00,Wunderground v.1.15,2013-01-18 12:05:00,
2013-01-18 07:11:00,18.9,15.4,30.51,SSW,208,3.0,4.0,86,0.00,,,0.00,Wunderground v.1.15,2013-01-18 12:11:00,
2013-01-18 07:17:00,19.2,15.7,30.51,SW,214,4.0,5.0,86,0.00,,,0.00,Wunderground v.1.15,2013-01-18 12:17:00,
2013-01-18 07:23:00,19.3,15.5,30.51,SW,218,4.0,6.0,85,0.00,,,0.00,Wunderground v.1.15,2013-01-18 12:23:00,
2013-01-18 07:29:00,19.5,15.7,30.51,SSW,202,4.0,6.0,85,0.00,,,0.00,Wunderground v.1.15,2013-01-18 12:29:00,
2013-01-18 07:35:00,19.5,15.7,30.51,SSW,198,3.0,5.0,85,0.00,,,0.00,Wunderground v.1.15,2013-01-18 12:35:00,
2013-01-18 07:41:00,19.6,15.8,30.51,SSW,203,3.0,5.0,85,0.00,,,0.00,Wunderground v.1.15,2013-01-18 12:41:00,
2013-01-18 07:46:00,19.5,15.7,30.51,SSW,207,3.0,5.0,85,0.00,,,0.00,Wunderground v.1.15,2013-01-18 12:46:00,
2013-01-18 07:52:00,19.4,15.6,30.51,SSW,211,3.0,5.0,85,0.00,,,0.00,Wunderground v.1.15,2013-01-18 12:52:00,
2013-01-18 07:58:00,19.3,15.5,30.51,SSW,195,2.0,5.0,85,0.00,,,0.00,Wunderground v.1.15,2013-01-18 12:58:00,
2013-01-18 08:04:00,19.2,15.4,30.51,SSW,212,2.0,4.0,85,0.00,,,0.00,Wunderground v.1.15,2013-01-18 13:04:00,
2013-01-18 08:10:00,19.2,15.4,30.51,South,170,2.0,3.0,85,0.00,,,0.00,Wunderground v.1.15,2013-01-18 13:10:00,
2013-01-18 08:16:00,19.2,15.4,30.51,SSW,205,2.0,3.0,85,0.00,,,0.00,Wunderground v.1.15,2013-01-18 13:16:00,
2013-01-18 08:22:00,19.3,15.8,30.51,SSW,210,3.0,3.0,86,0.00,,,0.00,Wunderground v.1.15,2013-01-18 13:22:00,
2013-01-18 08:28:00,19.7,15.9,30.51,SSW,207,3.0,4.0,85,0.00,,,0.00,Wunderground v.1.15,2013-01-18 13:28:00,
2013-01-18 08:34:00,20.2,16.4,30.51,South,191,3.0,6.0,85,0.00,,,0.00,Wunderground v.1.15,2013-01-18 13:34:00,
2013-01-18 08:40:00,20.6,16.5,30.51,South,179,4.0,6.0,84,0.00,,,0.00,Wunderground v.1.15,2013-01-18 13:40:00,
2013-01-18 08:46:00,21.1,16.7,30.51,SSW,198,4.0,6.0,83,0.00,,,0.00,Wunderground v.1.15,2013-01-18 13:46:00,
2013-01-18 08:51:00,21.5,16.9,30.51,SSW,205,4.0,6.0,82,0.00,,,0.00,Wunderground v.1.15,2013-01-18 13:51:00,
2013-01-18 08:57:00,21.9,17.2,30.51,SSW,212,4.0,6.0,82,0.00,,,0.00,Wunderground v.1.15,2013-01-18 13:57:00,
2013-01-18 09:02:00,22.3,17.6,30.52,SSW,201,4.0,4.0,82,0.00,,,0.00,Wunderground v.1.15,2013-01-18 14:02:00,
2013-01-18 09:08:00,22.8,17.8,30.52,SSW,197,5.0,9.0,81,0.00,,,0.00,Wunderground v.1.15,2013-01-18 14:08:00,
2013-01-18 09:13:00,23.1,17.8,30.52,SSW,205,6.0,6.0,80,0.00,,,0.00,Wunderground v.1.15,2013-01-18 14:13:00,
2013-01-18 09:19:00,23.5,17.9,30.52,SSW,210,6.0,8.0,79,0.00,,,0.00,Wunderground v.1.15,2013-01-18 14:19:00,
2013-01-18 09:25:00,23.8,17.9,30.52,SSW,205,6.0,9.0,78,0.00,,,0.00,Wunderground v.1.15,2013-01-18 14:25:00,
2013-01-18 09:31:00,24.1,18.2,30.52,SW,215,7.0,8.0,78,0.00,,,0.00,Wunderground v.1.15,2013-01-18 14:31:00,
2013-01-18 09:37:00,24.5,18.6,30.52,SSW,208,7.0,9.0,78,0.00,,,0.00,Wunderground v.1.15,2013-01-18 14:37:00,
2013-01-18 09:43:00,24.9,19.0,30.52,SSW,205,7.0,10.0,78,0.00,,,0.00,Wunderground v.1.15,2013-01-18 14:43:00,
2013-01-18 09:49:00,25.2,18.7,30.52,SSW,212,8.0,10.0,76,0.00,,,0.00,Wunderground v.1.15,2013-01-18 14:49:00,
2013-01-18 09:54:00,25.4,18.9,30.51,SSW,200,8.0,11.0,76,0.00,,,0.00,Wunderground v.1.15,2013-01-18 14:54:00,
2013-01-18 10:00:00,25.9,19.4,30.51,SW,221,8.0,9.0,76,0.00,,,0.00,Wunderground v.1.15,2013-01-18 15:00:00,
2013-01-18 10:06:00,26.2,19.7,30.51,South,190,7.0,12.0,76,0.00,,,0.00,Wunderground v.1.15,2013-01-18 15:06:00,
2013-01-18 10:11:00,26.6,19.7,30.52,SSW,203,8.0,11.0,75,0.00,,,0.00,Wunderground v.1.15,2013-01-18 15:11:00,
2013-01-18 10:17:00,27.0,20.4,30.51,SSW,210,8.0,11.0,76,0.00,,,0.00,Wunderground v.1.15,2013-01-18 15:17:00,
2013-01-18 10:23:00,27.3,20.4,30.51,SSW,198,8.0,12.0,75,0.00,,,0.00,Wunderground v.1.15,2013-01-18 15:23:00,
2013-01-18 10:29:00,27.7,20.8,30.50,SSE,161,8.0,13.0,75,0.00,,,0.00,Wunderground v.1.15,2013-01-18 15:29:00,
2013-01-18 10:35:00,28.0,20.8,30.51,South,190,8.0,12.0,74,0.00,,,0.00,Wunderground v.1.15,2013-01-18 15:35:00,
2013-01-18 10:41:00,28.1,21.2,30.51,SSW,201,9.0,12.0,75,0.00,,,0.00,Wunderground v.1.15,2013-01-18 15:41:00,
2013-01-18 10:47:00,28.3,20.4,30.50,South,181,10.0,15.0,72,0.00,,,0.00,Wunderground v.1.15,2013-01-18 15:47:00,
2013-01-18 10:53:00,28.3,20.7,30.50,SSW,210,11.0,12.0,73,0.00,,,0.00,Wunderground v.1.15,2013-01-18 15:53:00,
2013-01-18 10:59:00,28.8,20.9,30.50,SW,229,10.0,16.0,72,0.00,,,0.00,Wunderground v.1.15,2013-01-18 15:59:00,
2013-01-18 11:05:00,29.0,21.1,30.50,SW,215,11.0,16.0,72,0.00,,,0.00,Wunderground v.1.15,2013-01-18 16:05:00,
2013-01-18 11:11:00,29.1,20.9,30.50,SW,217,12.0,13.0,71,0.00,,,0.00,Wunderground v.1.15,2013-01-18 16:11:00,
2013-01-18 11:17:00,29.3,21.4,30.50,SSW,200,12.0,13.0,72,0.00,,,0.00,Wunderground v.1.15,2013-01-18 16:17:00,
2013-01-18 11:22:00,29.6,21.3,30.50,SSW,200,11.0,12.0,71,0.00,,,0.00,Wunderground v.1.15,2013-01-18 16:22:00,
2013-01-18 11:27:00,29.9,21.6,30.49,South,188,11.0,14.0,71,0.00,,,0.00,Wunderground v.1.15,2013-01-18 16:27:00,
2013-01-18 11:33:00,30.2,21.9,30.48,South,174,12.0,17.0,71,0.00,,,0.00,Wunderground v.1.15,2013-01-18 16:33:00,
2013-01-18 11:39:00,30.5,22.5,30.48,SSW,198,11.0,17.0,72,0.00,,,0.00,Wunderground v.1.15,2013-01-18 16:39:00,
2013-01-18 11:45:00,30.6,22.0,30.48,SE,145,11.0,15.0,70,0.00,,,0.00,Wunderground v.1.15,2013-01-18 16:45:00,
2013-01-18 11:51:00,30.8,22.2,30.47,SSW,198,13.0,16.0,70,0.00,,,0.00,Wunderground v.1.15,2013-01-18 16:51:00,
2013-01-18 11:57:00,30.9,22.3,30.46,SSW,207,14.0,17.0,70,0.00,,,0.00,Wunderground v.1.15,2013-01-18 16:57:00,
2013-01-18 12:03:00,31.0,22.0,30.46,SSW,207,13.0,16.0,69,0.00,,,0.00,Wunderground v.1.15,2013-01-18 17:03:00,
2013-01-18 12:09:00,31.4,22.1,30.45,South,172,13.0,16.0,68,0.00,,,0.00,Wunderground v.1.15,2013-01-18 17:09:00,
2013-01-18 12:15:00,31.5,22.1,30.45,SSW,203,13.0,16.0,68,0.00,,,0.00,Wunderground v.1.15,2013-01-18 17:15:00,
2013-01-18 12:21:00,31.3,22.0,30.44,SSW,200,15.0,17.0,68,0.00,,,0.00,Wunderground v.1.15,2013-01-18 17:21:00,
2013-01-18 12:26:00,31.7,22.7,30.44,SSW,198,14.0,17.0,69,0.00,,,0.00,Wunderground v.1.15,2013-01-18 17:26:00,
2013-01-18 12:32:00,32.0,22.6,30.44,SSW,212,13.0,20.0,68,0.00,,,0.00,Wunderground v.1.15,2013-01-18 17:32:00,
2013-01-18 12:38:00,31.9,21.8,30.43,SSW,197,14.0,20.0,66,0.00,,,0.00,Wunderground v.1.15,2013-01-18 17:38:00,
2013-01-18 12:43:00,32.1,22.4,30.43,SSW,197,14.0,18.0,67,0.00,,,0.00,Wunderground v.1.15,2013-01-18 17:43:00,
2013-01-18 12:49:00,32.2,22.5,30.43,SSW,207,15.0,19.0,67,0.00,,,0.00,Wunderground v.1.15,2013-01-18 17:49:00,
2013-01-18 12:55:00,32.3,22.6,30.42,SSW,195,14.0,18.0,67,0.00,,,0.00,Wunderground v.1.15,2013-01-18 17:55:00,
2013-01-18 13:00:00,32.5,23.1,30.42,South,177,14.0,14.0,68,0.00,,,0.00,Wunderground v.1.15,2013-01-18 18:00:00,
2013-01-18 13:06:00,33.1,23.7,30.41,South,188,13.0,15.0,68,0.00,,,0.00,Wunderground v.1.15,2013-01-18 18:06:00,
2013-01-18 13:12:00,33.1,23.3,30.41,South,183,14.0,14.0,67,0.00,,,0.00,Wunderground v.1.15,2013-01-18 18:12:00,
2013-01-18 13:17:00,33.4,23.6,30.40,SSW,212,13.0,14.0,67,0.00,,,0.00,Wunderground v.1.15,2013-01-18 18:17:00,
2013-01-18 13:23:00,33.6,23.4,30.40,South,169,12.0,17.0,66,0.00,,,0.00,Wunderground v.1.15,2013-01-18 18:23:00,
2013-01-18 13:29:00,33.7,23.2,30.40,SW,235,13.0,22.0,65,0.00,,,0.00,Wunderground v.1.15,2013-01-18 18:29:00,
2013-01-18 13:34:00,33.8,24.0,30.39,SSW,204,13.0,22.0,67,0.00,,,0.00,Wunderground v.1.15,2013-01-18 18:34:00,
2013-01-18 13:40:00,34.1,23.9,30.38,SSW,197,13.0,13.0,66,0.00,,,0.00,Wunderground v.1.15,2013-01-18 18:40:00,
2013-01-18 13:46:00,34.2,23.7,30.38,SW,225,12.0,22.0,65,0.00,,,0.00,Wunderground v.1.15,2013-01-18 18:46:00,
2013-01-18 13:52:00,34.2,22.9,30.38,SW,225,13.0,22.0,63,0.00,,,0.00,Wunderground v.1.15,2013-01-18 18:52:00,
2013-01-18 13:58:00,34.5,23.2,30.38,SSW,212,12.0,22.0,63,0.00,,,0.00,Wunderground v.1.15,2013-01-18 18:58:00,
2013-01-18 14:03:00,34.9,22.8,30.37,SSW,201,12.0,17.0,61,0.00,,,0.00,Wunderground v.1.15,2013-01-18 19:03:00,
2013-01-18 14:09:00,35.1,23.4,30.36,SSW,200,12.0,17.0,62,0.00,,,0.00,Wunderground v.1.15,2013-01-18 19:09:00,
2013-01-18 14:15:00,35.5,23.4,30.36,South,183,12.0,17.0,61,0.00,,,0.00,Wunderground v.1.15,2013-01-18 19:15:00,
2013-01-18 14:21:00,35.6,23.1,30.36,South,169,13.0,13.0,60,0.00,,,0.00,Wunderground v.1.15,2013-01-18 19:21:00,
2013-01-18 14:27:00,35.4,23.3,30.35,SSW,210,13.0,17.0,61,0.00,,,0.00,Wunderground v.1.15,2013-01-18 19:27:00,
2013-01-18 14:33:00,35.5,22.6,30.35,SSE,162,14.0,26.0,59,0.00,,,0.00,Wunderground v.1.15,2013-01-18 19:33:00,
2013-01-18 14:39:00,35.4,22.5,30.34,SSW,208,13.0,26.0,59,0.00,,,0.00,Wunderground v.1.15,2013-01-18 19:39:00,
2013-01-18 14:45:00,35.5,22.2,30.34,SSW,208,12.0,26.0,58,0.00,,,0.00,Wunderground v.1.15,2013-01-18 19:45:00,
2013-01-18 14:50:00,35.8,22.5,30.34,SSW,200,13.0,13.0,58,0.00,,,0.00,Wunderground v.1.15,2013-01-18 19:50:00,
2013-01-18 14:56:00,36.1,22.3,30.33,SSE,165,14.0,26.0,57,0.00,,,0.00,Wunderground v.1.15,2013-01-18 19:56:00,
2013-01-18 15:02:00,36.4,23.0,30.33,South,188,12.0,15.0,58,0.00,,,0.00,Wunderground v.1.15,2013-01-18 20:02:00,
2013-01-18 15:08:00,36.7,22.5,30.33,SSW,200,13.0,18.0,56,0.00,,,0.00,Wunderground v.1.15,2013-01-18 20:08:00,
2013-01-18 15:14:00,36.9,22.2,30.32,SSW,210,14.0,14.0,55,0.00,,,0.00,Wunderground v.1.15,2013-01-18 20:14:00,
2013-01-18 15:20:00,37.0,21.4,30.32,SSW,207,14.0,14.0,53,0.00,,,0.00,Wunderground v.1.15,2013-01-18 20:20:00,
2013-01-18 15:26:00,37.2,22.5,30.32,SSW,207,13.0,16.0,55,0.00,,,0.00,Wunderground v.1.15,2013-01-18 20:26:00,
2013-01-18 15:32:00,37.2,22.1,30.31,SSW,212,14.0,23.0,54,0.00,,,0.00,Wunderground v.1.15,2013-01-18 20:32:00,
2013-01-18 15:38:00,37.3,22.6,30.31,SSW,207,14.0,23.0,55,0.00,,,0.00,Wunderground v.1.15,2013-01-18 20:38:00,
2013-01-18 15:43:00,37.4,23.1,30.31,South,177,13.0,23.0,56,0.00,,,0.00,Wunderground v.1.15,2013-01-18 20:43:00,
2013-01-18 15:48:00,37.6,22.4,30.30,SSW,207,13.0,23.0,54,0.00,,,0.00,Wunderground v.1.15,2013-01-18 20:48:00,
2013-01-18 15:54:00,37.7,22.1,30.30,South,184,12.0,23.0,53,0.00,,,0.00,Wunderground v.1.15,2013-01-18 20:54:00,
2013-01-18 16:00:00,37.7,23.0,30.30,SSW,207,12.0,12.0,55,0.00,,,0.00,Wunderground v.1.15,2013-01-18 21:00:00,
2013-01-18 16:06:00,37.8,23.1,30.29,SSW,209,12.0,15.0,55,0.00,,,0.00,Wunderground v.1.15,2013-01-18 21:06:00,
2013-01-18 16:12:00,37.9,23.2,30.29,SE,144,13.0,17.0,55,0.00,,,0.00,Wunderground v.1.15,2013-01-18 21:12:00,
2013-01-18 16:18:00,37.8,23.1,30.29,South,171,13.0,17.0,55,0.00,,,0.00,Wunderground v.1.15,2013-01-18 21:18:00,
2013-01-18 16:24:00,37.8,22.6,30.28,South,171,12.0,16.0,54,0.00,,,0.00,Wunderground v.1.15,2013-01-18 21:24:00,
2013-01-18 16:30:00,37.7,22.5,30.28,South,174,13.0,15.0,54,0.00,,,0.00,Wunderground v.1.15,2013-01-18 21:30:00,
2013-01-18 16:35:00,37.7,23.0,30.27,South,177,14.0,22.0,55,0.00,,,0.00,Wunderground v.1.15,2013-01-18 21:35:00,
2013-01-18 16:41:00,37.7,22.5,30.27,South,176,13.0,22.0,54,0.00,,,0.00,Wunderground v.1.15,2013-01-18 21:41:00,
2013-01-18 16:47:00,37.7,22.5,30.26,South,177,12.0,22.0,54,0.00,,,0.00,Wunderground v.1.15,2013-01-18 21:47:00,
2013-01-18 16:53:00,37.6,23.3,30.26,SSE,156,11.0,22.0,56,0.00,,,0.00,Wunderground v.1.15,2013-01-18 21:53:00,
2013-01-18 16:59:00,37.6,23.3,30.26,South,183,10.0,22.0,56,0.00,,,0.00,Wunderground v.1.15,2013-01-18 21:59:00,
2013-01-18 17:05:00,37.4,23.1,30.25,South,186,11.0,15.0,56,0.00,,,0.00,Wunderground v.1.15,2013-01-18 22:05:00,
2013-01-18 17:11:00,37.2,23.4,30.25,South,191,11.0,11.0,57,0.00,,,0.00,Wunderground v.1.15,2013-01-18 22:11:00,
2013-01-18 17:17:00,37.1,22.8,30.25,South,183,10.0,12.0,56,0.00,,,0.00,Wunderground v.1.15,2013-01-18 22:17:00,
2013-01-18 17:22:00,37.0,22.7,30.25,South,173,11.0,12.0,56,0.00,,,0.00,Wunderground v.1.15,2013-01-18 22:22:00,
2013-01-18 17:27:00,36.7,22.9,30.25,SE,145,11.0,12.0,57,0.00,,,0.00,Wunderground v.1.15,2013-01-18 22:27:00,
2013-01-18 17:33:00,36.5,23.1,30.25,SSW,201,11.0,21.0,58,0.00,,,0.00,Wunderground v.1.15,2013-01-18 22:33:00,
2013-01-18 17:39:00,36.2,22.4,30.24,SE,143,12.0,21.0,57,0.00,,,0.00,Wunderground v.1.15,2013-01-18 22:39:00,
2013-01-18 17:45:00,35.8,22.9,30.24,South,181,12.0,21.0,59,0.00,,,0.00,Wunderground v.1.15,2013-01-18 22:45:00,
2013-01-18 17:51:00,35.5,23.4,30.24,South,174,9.0,21.0,61,0.00,,,0.00,Wunderground v.1.15,2013-01-18 22:51:00,
2013-01-18 17:57:00,35.1,24.1,30.24,SSW,193,7.0,21.0,64,0.00,,,0.00,Wunderground v.1.15,2013-01-18 22:57:00,
2013-01-18 18:02:00,34.9,23.9,30.24,SSE,159,8.0,11.0,64,0.00,,,0.00,Wunderground v.1.15,2013-01-18 23:02:00,
2013-01-18 18:08:00,34.7,23.8,30.24,South,176,9.0,11.0,64,0.00,,,0.00,Wunderground v.1.15,2013-01-18 23:08:00,
2013-01-18 18:14:00,34.7,24.1,30.24,SSW,194,8.0,14.0,65,0.00,,,0.00,Wunderground v.1.15,2013-01-18 23:14:00,
2013-01-18 18:20:00,34.6,24.0,30.24,SSW,208,9.0,10.0,65,0.00,,,0.00,Wunderground v.1.15,2013-01-18 23:20:00,
2013-01-18 18:26:00,34.5,24.3,30.23,SSW,194,8.0,12.0,66,0.00,,,0.00,Wunderground v.1.15,2013-01-18 23:26:00,
2013-01-18 18:31:00,34.5,24.3,30.23,SW,222,9.0,10.0,66,0.00,,,0.00,Wunderground v.1.15,2013-01-18 23:31:00,
2013-01-18 18:37:00,34.4,24.2,30.23,South,173,9.0,17.0,66,0.00,,,0.00,Wunderground v.1.15,2013-01-18 23:37:00,
2013-01-18 18:42:00,34.4,24.2,30.23,South,170,9.0,17.0,66,0.00,,,0.00,Wunderground v.1.15,2013-01-18 23:42:00,
2013-01-18 18:48:00,34.4,24.2,30.23,South,183,9.0,17.0,66,0.00,,,0.00,Wunderground v.1.15,2013-01-18 23:48:00,
2013-01-18 18:54:00,34.4,24.2,30.22,SSW,209,10.0,17.0,66,0.00,,,0.00,Wunderground v.1.15,2013-01-18 23:54:00,
2013-01-18 19:00:00,34.4,24.6,30.22,South,172,11.0,11.0,67,0.00,,,0.00,Wunderground v.1.15,2013-01-19 00:00:00,
2013-01-18 19:06:00,34.5,24.7,30.22,SSW,208,12.0,16.0,67,0.00,,,0.00,Wunderground v.1.15,2013-01-19 00:06:00,
2013-01-18 19:12:00,34.4,24.9,30.22,South,180,13.0,18.0,68,0.00,,,0.00,Wunderground v.1.15,2013-01-19 00:12:00,
2013-01-18 19:18:00,34.3,25.2,30.21,SSE,150,13.0,18.0,69,0.00,,,0.00,Wunderground v.1.15,2013-01-19 00:18:00,
2013-01-18 19:23:00,34.2,25.1,30.21,South,172,13.0,13.0,69,0.00,,,0.00,Wunderground v.1.15,2013-01-19 00:23:00,
2013-01-18 19:29:00,34.3,25.2,30.21,SSE,149,13.0,14.0,69,0.00,,,0.00,Wunderground v.1.15,2013-01-19 00:29:00,
2013-01-18 19:35:00,34.3,24.8,30.21,SSE,158,13.0,17.0,68,0.00,,,0.00,Wunderground v.1.15,2013-01-19 00:35:00,
2013-01-18 19:41:00,34.3,24.8,30.21,SSW,202,12.0,16.0,68,0.00,,,0.00,Wunderground v.1.15,2013-01-19 00:41:00,
2013-01-18 19:47:00,34.5,24.7,30.20,SSW,200,14.0,20.0,67,0.00,,,0.00,Wunderground v.1.15,2013-01-19 00:47:00,
2013-01-18 19:53:00,34.6,24.8,30.20,SSE,159,15.0,16.0,67,0.00,,,0.00,Wunderground v.1.15,2013-01-19 00:53:00,
2013-01-18 19:59:00,34.8,24.6,30.20,SSW,200,14.0,18.0,66,0.00,,,0.00,Wunderground v.1.15,2013-01-19 00:59:00,
2013-01-18 20:05:00,34.9,24.7,30.20,SSW,210,14.0,19.0,66,0.00,,,0.00,Wunderground v.1.15,2013-01-19 01:05:00,
2013-01-18 20:10:00,34.9,24.7,30.19,SSE,163,14.0,16.0,66,0.00,,,0.00,Wunderground v.1.15,2013-01-19 01:10:00,
2013-01-18 20:16:00,35.0,24.4,30.19,South,172,14.0,19.0,65,0.00,,,0.00,Wunderground v.1.15,2013-01-19 01:16:00,
2013-01-18 20:22:00,35.3,24.7,30.18,SSW,197,15.0,15.0,65,0.00,,,0.00,Wunderground v.1.15,2013-01-19 01:22:00,
2013-01-18 20:28:00,35.5,24.5,30.18,South,184,16.0,19.0,64,0.00,,,0.00,Wunderground v.1.15,2013-01-19 01:28:00,
2013-01-18 20:34:00,35.8,24.4,30.17,SSW,198,16.0,22.0,63,0.00,,,0.00,Wunderground v.1.15,2013-01-19 01:34:00,
2013-01-18 20:40:00,36.0,24.6,30.17,South,186,16.0,16.0,63,0.00,,,0.00,Wunderground v.1.15,2013-01-19 01:40:00,
2013-01-18 20:46:00,35.9,24.5,30.17,South,170,16.0,22.0,63,0.00,,,0.00,Wunderground v.1.15,2013-01-19 01:46:00,
2013-01-18 20:51:00,35.7,24.7,30.17,South,191,15.0,20.0,64,0.00,,,0.00,Wunderground v.1.15,2013-01-19 01:51:00,
2013-01-18 20:57:00,35.5,24.5,30.16,SSE,151,16.0,22.0,64,0.00,,,0.00,Wunderground v.1.15,2013-01-19 01:57:00,
2013-01-18 21:02:00,35.6,24.6,30.16,SE,145,15.0,18.0,64,0.00,,,0.00,Wunderground v.1.15,2013-01-19 02:02:00,
2013-01-18 21:08:00,35.6,24.6,30.16,SSE,163,15.0,18.0,64,0.00,,,0.00,Wunderground v.1.15,2013-01-19 02:08:00,
2013-01-18 21:14:00,35.7,24.7,30.16,South,177,15.0,25.0,64,0.00,,,0.00,Wunderground v.1.15,2013-01-19 02:14:00,
2013-01-18 21:20:00,35.7,24.7,30.15,SSW,198,16.0,16.0,64,0.00,,,0.00,Wunderground v.1.15,2013-01-19 02:20:00,
2013-01-18 21:26:00,35.7,25.1,30.15,SSW,204,16.0,18.0,65,0.00,,,0.00,Wunderground v.1.15,2013-01-19 02:26:00,
2013-01-18 21:31:00,35.9,24.9,30.15,SSW,195,15.0,26.0,64,0.00,,,0.00,Wunderground v.1.15,2013-01-19 02:31:00,
2013-01-18 21:37:00,36.1,25.1,30.15,SSW,193,15.0,26.0,64,0.00,,,0.00,Wunderground v.1.15,2013-01-19 02:37:00,
2013-01-18 21:42:00,36.4,25.0,30.14,SSW,194,17.0,26.0,63,0.00,,,0.00,Wunderground v.1.15,2013-01-19 02:42:00,
2013-01-18 21:48:00,36.3,24.9,30.14,SSW,193,16.0,26.0,63,0.00,,,0.00,Wunderground v.1.15,2013-01-19 02:48:00,
2013-01-18 21:53:00,36.4,25.4,30.14,SSW,212,15.0,26.0,64,0.00,,,0.00,Wunderground v.1.15,2013-01-19 02:53:00,
2013-01-18 21:59:00,36.4,25.4,30.14,SW,215,16.0,26.0,64,0.00,,,0.00,Wunderground v.1.15,2013-01-19 02:59:00,
2013-01-18 22:04:00,36.5,25.1,30.14,South,189,17.0,20.0,63,0.00,,,0.00,Wunderground v.1.15,2013-01-19 03:04:00,
2013-01-18 22:10:00,36.5,25.1,30.14,SSW,210,16.0,17.0,63,0.00,,,0.00,Wunderground v.1.15,2013-01-19 03:10:00,
2013-01-18 22:16:00,36.6,25.6,30.14,South,179,16.0,17.0,64,0.00,,,0.00,Wunderground v.1.15,2013-01-19 03:16:00,
2013-01-18 22:21:00,36.6,25.2,30.14,South,180,15.0,20.0,63,0.00,,,0.00,Wunderground v.1.15,2013-01-19 03:21:00,
2013-01-18 22:26:00,36.5,25.5,30.14,SSW,199,14.0,20.0,64,0.00,,,0.00,Wunderground v.1.15,2013-01-19 03:26:00,
2013-01-18 22:32:00,36.7,25.7,30.14,SSW,208,14.0,26.0,64,0.00,,,0.00,Wunderground v.1.15,2013-01-19 03:32:00,
2013-01-18 22:38:00,37.0,25.6,30.14,South,174,15.0,26.0,63,0.00,,,0.00,Wunderground v.1.15,2013-01-19 03:38:00,
2013-01-18 22:44:00,37.2,25.8,30.14,SW,215,14.0,26.0,63,0.00,,,0.00,Wunderground v.1.15,2013-01-19 03:44:00,
2013-01-18 22:49:00,37.2,25.8,30.14,SW,215,13.0,26.0,63,0.00,,,0.00,Wunderground v.1.15,2013-01-19 03:49:00,
2013-01-18 22:55:00,37.3,25.8,30.14,SW,222,14.0,26.0,63,0.00,,,0.00,Wunderground v.1.15,2013-01-19 03:55:00,
2013-01-18 23:00:00,37.4,25.9,30.14,SW,228,14.0,14.0,63,0.00,,,0.00,Wunderground v.1.15,2013-01-19 04:00:00,
2013-01-18 23:06:00,37.3,25.8,30.14,SW,229,12.0,19.0,63,0.00,,,0.00,Wunderground v.1.15,2013-01-19 04:06:00,
2013-01-18 23:11:00,37.3,25.8,30.14,SW,228,12.0,14.0,63,0.00,,,0.00,Wunderground v.1.15,2013-01-19 04:11:00,
2013-01-18 23:17:00,37.3,25.8,30.14,SW,221,12.0,14.0,63,0.00,,,0.00,Wunderground v.1.15,2013-01-19 04:17:00,
2013-01-18 23:23:00,37.3,25.8,30.14,SSW,208,12.0,12.0,63,0.00,,,0.00,Wunderground v.1.15,2013-01-19 04:23:00,
2013-01-18 23:29:00,37.2,26.1,30.14,SSW,208,11.0,16.0,64,0.00,,,0.00,Wunderground v.1.15,2013-01-19 04:29:00,
2013-01-18 23:35:00,37.3,26.2,30.14,SW,224,12.0,24.0,64,0.00,,,0.00,Wunderground v.1.15,2013-01-19 04:35:00,
2013-01-18 23:42:00,37.3,26.2,30.14,SW,221,11.0,24.0,64,0.00,,,0.00,Wunderground v.1.15,2013-01-19 04:42:00,
2013-01-18 23:48:00,37.3,26.2,30.14,SSW,212,11.0,24.0,64,0.00,,,0.00,Wunderground v.1.15,2013-01-19 04:48:00,
2013-01-18 23:54:00,37.4,26.3,30.14,SW,217,13.0,24.0,64,0.00,,,0.00,Wunderground v.1.15,2013-01-19 04:54:00,